Time,TemperatureF,DewpointF,PressureIn,WindDirection,WindDirectionDegrees,WindSpeedMPH,WindSpeedGustMPH,Humidity,HourlyPrecipIn,Conditions,Clouds,dailyrainin,SoftwareType,DateUTC
2013-02-07 03:28:00,45.3,26.1,31.03,WSW,248,0.0,0.0,47,0.00,,,0.00,WUHU216HW,2013-02-07 10:28:00,
2013-02-07 03:29:00,45.3,26.1,31.03,WSW,248,0.0,0.0,47,0.00,,,0.00,WUHU216HW,2013-02-07 10:29:00,
2013-02-07 03:35:00,45.6,25.9,31.03,WSW,248,6.4,7.6,46,0.00,,,0.00,WUHU216HW,2013-02-07 10:35:00,
2013-02-07 03:40:00,45.6,25.9,31.03,WSW,248,6.9,9.1,46,0.00,,,0.00,WUHU216HW,2013-02-07 10:40:00,
2013-02-07 03:45:00,45.6,25.9,31.03,WSW,248,5.5,9.1,46,0.00,,,0.00,WUHU216HW,2013-02-07 10:45:00,
2013-02-07 03:50:00,45.6,25.9,31.03,WSW,248,6.9,8.9,46,0.00,,,0.00,WUHU216HW,2013-02-07 10:50:00,
2013-02-07 03:55:00,45.6,25.9,31.03,WSW,248,4.4,8.9,46,0.00,,,0.00,WUHU216HW,2013-02-07 10:55:00,
2013-02-07 04:00:00,46.0,26.2,31.03,WSW,248,8.0,8.0,46,0.00,,,0.00,WUHU216HW,2013-02-07 11:00:00,
2013-02-07 04:05:00,46.0,26.2,31.03,SW,225,5.3,11.1,46,0.00,,,0.00,WUHU216HW,2013-02-07 11:05:00,
2013-02-07 04:10:00,46.0,26.2,31.02,SW,225,4.6,11.1,46,0.00,,,0.00,WUHU216HW,2013-02-07 11:10:00,
2013-02-07 04:15:00,45.6,25.9,31.03,WSW,248,4.9,9.6,46,0.00,,,0.00,WUHU216HW,2013-02-07 11:15:00,
2013-02-07 04:20:00,45.5,25.7,31.03,SW,225,9.6,9.6,46,0.00,,,0.00,WUHU216HW,2013-02-07 11:20:00,
2013-02-07 04:25:00,45.3,25.6,31.02,WSW,248,7.1,9.6,46,0.00,,,0.00,WUHU216HW,2013-02-07 11:25:00,
2013-02-07 04:30:00,45.1,26.0,31.03,WSW,248,3.8,8.7,47,0.00,,,0.00,WUHU216HW,2013-02-07 11:30:00,
2013-02-07 04:35:00,44.9,25.8,31.03,WSW,248,4.6,9.1,47,0.00,,,0.00,WUHU216HW,2013-02-07 11:35:00,
2013-02-07 04:40:00,44.9,25.8,31.03,WSW,248,4.4,9.1,47,0.00,,,0.00,WUHU216HW,2013-02-07 11:40:00,
2013-02-07 04:46:00,45.1,26.0,31.03,WSW,248,3.8,9.3,47,0.00,,,0.00,WUHU216HW,2013-02-07 11:46:00,
2013-02-07 04:50:00,45.3,26.1,31.03,WSW,248,4.0,10.0,47,0.00,,,0.00,WUHU216HW,2013-02-07 11:50:00,
2013-02-07 04:56:00,45.3,26.1,31.03,WSW,248,2.9,10.0,47,0.00,,,0.00,WUHU216HW,2013-02-07 11:56:00,
2013-02-07 05:01:00,45.3,26.1,31.02,WSW,248,6.7,7.3,47,0.00,,,0.00,WUHU216HW,2013-02-07 12:01:00,
2013-02-07 05:06:00,45.3,26.1,31.03,WSW,248,0.8,8.0,47,0.00,,,0.00,WUHU216HW,2013-02-07 12:06:00,
2013-02-07 05:11:00,45.1,26.0,31.03,WSW,248,6.9,8.0,47,0.00,,,0.00,WUHU216HW,2013-02-07 12:11:00,
2013-02-07 05:16:00,44.9,25.8,31.03,WSW,248,7.6,8.0,47,0.00,,,0.00,WUHU216HW,2013-02-07 12:16:00,
2013-02-07 05:21:00,44.9,25.8,31.03,WSW,248,6.4,7.6,47,0.00,,,0.00,WUHU216HW,2013-02-07 12:21:00,
2013-02-07 05:26:00,44.9,25.8,31.03,WSW,248,6.4,8.0,47,0.00,,,0.00,WUHU216HW,2013-02-07 12:26:00,
2013-02-07 05:31:00,44.7,25.6,31.03,WSW,248,0.0,8.0,47,0.00,,,0.00,WUHU216HW,2013-02-07 12:31:00,
2013-02-07 05:36:00,44.7,25.6,31.03,WSW,248,3.1,4.2,47,0.00,,,0.00,WUHU216HW,2013-02-07 12:36:00,
2013-02-07 05:41:00,44.6,25.5,31.03,West,270,0.0,4.2,47,0.00,,,0.00,WUHU216HW,2013-02-07 12:41:00,
2013-02-07 05:46:00,44.4,25.3,31.03,West,270,3.1,3.1,47,0.00,,,0.00,WUHU216HW,2013-02-07 12:46:00,
2013-02-07 05:51:00,44.4,25.8,31.03,WSW,248,5.3,5.5,48,0.00,,,0.00,WUHU216HW,2013-02-07 12:51:00,
2013-02-07 05:57:00,44.4,25.3,31.03,WSW,248,0.0,5.5,47,0.00,,,0.00,WUHU216HW,2013-02-07 12:57:00,
2013-02-07 06:02:00,44.4,25.8,31.03,WSW,248,3.8,4.6,48,0.00,,,0.00,WUHU216HW,2013-02-07 13:02:00,
2013-02-07 06:07:00,44.4,25.8,31.03,SW,225,5.3,5.3,48,0.00,,,0.00,WUHU216HW,2013-02-07 13:07:00,
2013-02-07 06:12:00,44.4,25.3,31.03,WSW,248,0.0,5.3,47,0.00,,,0.00,WUHU216HW,2013-02-07 13:12:00,
2013-02-07 06:17:00,44.4,25.8,31.04,WSW,248,0.0,5.3,48,0.00,,,0.00,WUHU216HW,2013-02-07 13:17:00,
2013-02-07 06:22:00,44.4,25.3,31.04,WSW,248,0.0,5.3,47,0.00,,,0.00,WUHU216HW,2013-02-07 13:22:00,
2013-02-07 06:27:00,44.4,25.8,31.03,WSW,248,0.8,4.4,48,0.00,,,0.00,WUHU216HW,2013-02-07 13:27:00,
2013-02-07 06:32:00,44.2,25.7,31.04,WSW,248,0.0,4.4,48,0.00,,,0.00,WUHU216HW,2013-02-07 13:32:00,
2013-02-07 06:37:00,44.0,25.5,31.04,WSW,248,1.7,2.2,48,0.00,,,0.00,WUHU216HW,2013-02-07 13:37:00,
2013-02-07 06:42:00,43.7,25.2,31.04,WSW,248,0.0,2.2,48,0.00,,,0.00,WUHU216HW,2013-02-07 13:42:00,
2013-02-07 06:47:00,43.3,24.9,31.04,WSW,248,0.0,0.0,48,0.00,,,0.00,WUHU216HW,2013-02-07 13:47:00,
2013-02-07 06:52:00,42.6,24.2,31.04,WSW,248,0.0,0.0,48,0.00,,,0.00,WUHU216HW,2013-02-07 13:52:00,
2013-02-07 06:57:00,42.0,24.2,31.04,WSW,248,0.0,0.0,49,0.00,,,0.00,WUHU216HW,2013-02-07 13:57:00,
2013-02-07 07:02:00,41.7,24.2,31.04,WSW,248,0.0,0.0,50,0.00,,,0.00,WUHU216HW,2013-02-07 14:02:00,
2013-02-07 07:07:00,41.7,24.4,31.04,WSW,248,0.0,0.0,50,0.00,,,0.00,WUHU216HW,2013-02-07 14:07:00,
2013-02-07 07:12:00,41.7,24.4,31.04,WSW,248,0.0,0.0,50,0.00,,,0.00,WUHU216HW,2013-02-07 14:12:00,
2013-02-07 07:18:00,41.5,24.2,31.04,WSW,248,0.0,0.0,50,0.00,,,0.00,WUHU216HW,2013-02-07 14:18:00,
2013-02-07 07:23:00,41.7,24.6,31.04,WSW,248,0.0,0.0,51,0.00,,,0.00,WUHU216HW,2013-02-07 14:23:00,
2013-02-07 07:28:00,42.0,25.2,31.05,WSW,248,0.0,0.0,51,0.00,,,0.00,WUHU216HW,2013-02-07 14:28:00,
2013-02-07 07:33:00,42.4,25.5,31.05,WSW,248,0.0,1.3,51,0.00,,,0.00,WUHU216HW,2013-02-07 14:33:00,
2013-02-07 07:38:00,42.6,25.7,31.05,WSW,248,0.0,1.3,51,0.00,,,0.00,WUHU216HW,2013-02-07 14:38:00,
2013-02-07 07:43:00,42.9,26.1,31.05,WSW,248,0.0,2.4,51,0.00,,,0.00,WUHU216HW,2013-02-07 14:43:00,
2013-02-07 07:48:00,43.3,26.0,31.05,West,270,1.5,2.4,50,0.00,,,0.00,WUHU216HW,2013-02-07 14:48:00,
2013-02-07 07:53:00,43.7,26.3,31.05,West,270,5.3,5.5,50,0.00,,,0.00,WUHU216HW,2013-02-07 14:53:00,
2013-02-07 07:58:00,44.6,26.6,31.05,WSW,248,6.0,7.6,49,0.00,,,0.00,WUHU216HW,2013-02-07 14:58:00,
2013-02-07 08:03:00,46.5,26.7,31.05,WSW,248,4.6,8.7,46,0.00,,,0.00,WUHU216HW,2013-02-07 15:03:00,
2013-02-07 08:08:00,48.0,26.9,31.05,WSW,248,1.3,8.7,44,0.00,,,0.00,WUHU216HW,2013-02-07 15:08:00,
2013-02-07 08:13:00,49.2,27.5,31.05,WSW,248,4.9,8.9,43,0.00,,,0.00,WUHU216HW,2013-02-07 15:13:00,
2013-02-07 08:18:00,50.3,27.4,31.05,WSW,248,5.1,9.8,41,0.00,,,0.00,WUHU216HW,2013-02-07 15:18:00,
2013-02-07 08:23:00,51.0,27.5,31.05,WSW,248,9.1,12.3,40,0.00,,,0.00,WUHU216HW,2013-02-07 15:23:00,
2013-02-07 08:28:00,51.9,27.6,31.06,WSW,248,5.8,12.3,39,0.00,,,0.00,WUHU216HW,2013-02-07 15:28:00,
2013-02-07 08:33:00,52.7,27.6,31.06,WSW,248,5.5,10.2,38,0.00,,,0.00,WUHU216HW,2013-02-07 15:33:00,
2013-02-07 08:38:00,53.7,28.6,31.06,WSW,248,3.5,6.7,38,0.00,,,0.00,WUHU216HW,2013-02-07 15:38:00,
2013-02-07 08:43:00,55.2,29.1,31.06,WSW,248,5.5,6.0,37,0.00,,,0.00,WUHU216HW,2013-02-07 15:43:00,
2013-02-07 08:48:00,57.0,29.4,31.06,WSW,248,2.0,5.5,35,0.00,,,0.00,WUHU216HW,2013-02-07 15:48:00,
2013-02-07 08:53:00,58.6,30.1,31.07,WSW,248,2.9,5.5,34,0.00,,,0.00,WUHU216HW,2013-02-07 15:53:00,
2013-02-07 08:59:00,60.0,30.6,31.07,WSW,248,1.5,5.5,33,0.00,,,0.00,WUHU216HW,2013-02-07 15:59:00,
2013-02-07 09:04:00,61.1,30.3,31.07,WSW,248,0.0,4.4,31,0.00,,,0.00,WUHU216HW,2013-02-07 16:04:00,
2013-02-07 09:09:00,61.5,29.7,31.07,WSW,248,3.8,8.2,30,0.00,,,0.00,WUHU216HW,2013-02-07 16:09:00,
2013-02-07 09:14:00,61.7,30.0,31.07,WSW,248,0.0,8.2,30,0.00,,,0.00,WUHU216HW,2013-02-07 16:14:00,
2013-02-07 09:19:00,62.7,29.9,31.07,WSW,248,0.0,5.3,29,0.00,,,0.00,WUHU216HW,2013-02-07 16:19:00,
2013-02-07 09:24:00,64.2,30.2,31.07,WSW,248,4.0,5.5,28,0.00,,,0.00,WUHU216HW,2013-02-07 16:24:00,
2013-02-07 09:29:00,64.2,30.2,31.07,WSW,248,0.0,6.7,28,0.00,,,0.00,WUHU216HW,2013-02-07 16:29:00,
2013-02-07 09:34:00,64.9,29.8,31.07,WSW,248,1.7,6.7,27,0.00,,,0.00,WUHU216HW,2013-02-07 16:34:00,
2013-02-07 09:39:00,64.2,29.5,31.07,WSW,248,10.7,10.7,27,0.00,,,0.00,WUHU216HW,2013-02-07 16:39:00,
2013-02-07 09:45:00,64.0,29.7,31.07,WSW,248,8.0,10.7,28,0.00,,,0.00,WUHU216HW,2013-02-07 16:45:00,
2013-02-07 09:50:00,64.2,29.2,31.07,WSW,248,7.8,9.3,27,0.00,,,0.00,WUHU216HW,2013-02-07 16:50:00,
2013-02-07 09:55:00,64.7,29.6,31.07,WSW,248,9.6,9.6,27,0.00,,,0.00,WUHU216HW,2013-02-07 16:55:00,
2013-02-07 10:00:00,65.1,30.0,31.07,WSW,248,3.1,9.6,27,0.00,,,0.00,WUHU216HW,2013-02-07 17:00:00,
2013-02-07 10:05:00,66.0,29.7,31.07,WSW,248,5.1,6.9,26,0.00,,,0.00,WUHU216HW,2013-02-07 17:05:00,
2013-02-07 10:10:00,67.2,29.8,31.07,WSW,248,4.2,6.0,25,0.00,,,0.00,WUHU216HW,2013-02-07 17:10:00,
2013-02-07 10:15:00,68.1,29.6,31.07,WSW,248,4.9,6.0,24,0.00,,,0.00,WUHU216HW,2013-02-07 17:15:00,
2013-02-07 10:20:00,69.4,30.6,31.07,WSW,248,2.0,6.0,24,0.00,,,0.00,WUHU216HW,2013-02-07 17:20:00,
2013-02-07 10:25:00,69.9,30.1,31.07,WSW,248,5.1,7.3,23,0.00,,,0.00,WUHU216HW,2013-02-07 17:25:00,
2013-02-07 10:30:00,71.2,32.1,31.07,WSW,248,0.0,7.3,24,0.00,,,0.00,WUHU216HW,2013-02-07 17:30:00,
2013-02-07 10:35:00,73.2,31.8,31.07,WSW,248,2.0,2.6,22,0.00,,,0.00,WUHU216HW,2013-02-07 17:35:00,
2013-02-07 10:40:00,74.1,31.7,31.07,WSW,248,0.0,2.9,21,0.00,,,0.00,WUHU216HW,2013-02-07 17:40:00,
2013-02-07 10:45:00,75.5,32.7,31.07,WSW,248,0.0,2.9,21,0.00,,,0.00,WUHU216HW,2013-02-07 17:45:00,
2013-02-07 10:51:00,78.0,33.7,31.07,WSW,248,0.0,0.0,20,0.00,,,0.00,WUHU216HW,2013-02-07 17:51:00,
2013-02-07 10:56:00,80.4,34.4,31.07,WSW,248,0.0,0.0,19,0.00,,,0.00,WUHU216HW,2013-02-07 17:56:00,
2013-02-07 11:01:00,81.5,34.9,31.07,WSW,248,4.2,4.2,17,0.00,,,0.00,WUHU216HW,2013-02-07 18:01:00,
2013-02-07 11:06:00,80.7,34.4,31.07,WSW,248,0.0,4.2,19,0.00,,,0.00,WUHU216HW,2013-02-07 18:06:00,
2013-02-07 11:11:00,83.6,31.5,31.07,WSW,248,0.0,3.8,16,0.00,,,0.00,WUHU216HW,2013-02-07 18:11:00,
2013-02-07 11:16:00,80.9,31.1,31.07,WSW,248,0.0,0.0,17,0.00,,,0.00,WUHU216HW,2013-02-07 18:16:00,
2013-02-07 11:21:00,80.2,30.5,31.06,WSW,248,2.0,5.3,17,0.00,,,0.00,WUHU216HW,2013-02-07 18:21:00,
2013-02-07 11:26:00,79.7,31.7,31.06,NW,315,2.2,5.3,18,0.00,,,0.00,WUHU216HW,2013-02-07 18:26:00,
2013-02-07 11:31:00,78.9,31.1,31.06,NW,315,4.6,6.0,18,0.00,,,0.00,WUHU216HW,2013-02-07 18:31:00,
2013-02-07 11:36:00,78.6,30.7,31.06,NW,315,2.0,6.0,18,0.00,,,0.00,WUHU216HW,2013-02-07 18:36:00,
2013-02-07 11:41:00,78.6,30.8,31.05,WSW,248,9.8,10.0,18,0.00,,,0.00,WUHU216HW,2013-02-07 18:41:00,
2013-02-07 11:46:00,77.3,29.8,31.05,WSW,248,5.1,10.0,18,0.00,,,0.00,WUHU216HW,2013-02-07 18:46:00,
2013-02-07 11:51:00,76.8,31.1,31.05,WSW,248,6.0,7.3,19,0.00,,,0.00,WUHU216HW,2013-02-07 18:51:00,
2013-02-07 11:56:00,75.3,31.6,31.04,WSW,248,7.1,8.0,20,0.00,,,0.00,WUHU216HW,2013-02-07 18:56:00,
2013-02-07 12:01:00,74.6,31.1,31.04,WSW,248,3.8,10.0,20,0.00,,,0.00,WUHU216HW,2013-02-07 19:01:00,
2013-02-07 12:06:00,74.4,31.7,31.04,WSW,248,5.8,11.8,21,0.00,,,0.00,WUHU216HW,2013-02-07 19:06:00,
2013-02-07 12:12:00,72.8,30.5,31.04,WSW,248,10.5,13.1,21,0.00,,,0.00,WUHU216HW,2013-02-07 19:12:00,
2013-02-07 12:17:00,72.5,30.2,31.04,NNE,23,5.8,13.1,21,0.00,,,0.00,WUHU216HW,2013-02-07 19:17:00,
2013-02-07 12:22:00,73.2,30.8,31.04,NE,45,4.6,13.1,21,0.00,,,0.00,WUHU216HW,2013-02-07 19:22:00,
2013-02-07 12:27:00,72.8,30.5,31.04,NE,45,6.7,13.4,21,0.00,,,0.00,WUHU216HW,2013-02-07 19:27:00,
2013-02-07 12:32:00,72.3,30.0,31.03,NE,45,10.0,13.4,21,0.00,,,0.00,WUHU216HW,2013-02-07 19:32:00,
2013-02-07 12:37:00,72.1,29.8,31.03,NNE,23,7.3,11.1,21,0.00,,,0.00,WUHU216HW,2013-02-07 19:37:00,
2013-02-07 12:42:00,71.9,29.7,31.02,NNE,23,12.0,12.7,21,0.00,,,0.00,WUHU216HW,2013-02-07 19:42:00,
2013-02-07 12:47:00,71.2,29.1,31.02,NE,45,9.8,13.4,21,0.00,,,0.00,WUHU216HW,2013-02-07 19:47:00,
2013-02-07 12:52:00,71.4,29.2,31.02,NNE,23,8.7,13.4,21,0.00,,,0.00,WUHU216HW,2013-02-07 19:52:00,
2013-02-07 12:57:00,71.4,29.2,31.01,NNE,23,2.4,13.6,21,0.00,,,0.00,WUHU216HW,2013-02-07 19:57:00,
2013-02-07 13:02:00,72.8,29.3,31.01,North,0,9.3,13.6,20,0.00,,,0.00,WUHU216HW,2013-02-07 20:02:00,
2013-02-07 13:07:00,72.3,27.4,31.01,NNE,23,10.0,13.1,19,0.00,,,0.00,WUHU216HW,2013-02-07 20:07:00,
2013-02-07 13:12:00,71.7,26.9,31.01,NNE,23,9.6,13.6,19,0.00,,,0.00,WUHU216HW,2013-02-07 20:12:00,
2013-02-07 13:17:00,71.2,26.6,31.00,ENE,68,10.7,13.6,19,0.00,,,0.00,WUHU216HW,2013-02-07 20:17:00,
2013-02-07 13:22:00,71.7,26.9,31.00,NE,45,11.8,18.7,19,0.00,,,0.00,WUHU216HW,2013-02-07 20:22:00,
2013-02-07 13:27:00,70.8,26.2,31.00,NE,45,14.7,18.7,19,0.00,,,0.00,WUHU216HW,2013-02-07 20:27:00,
2013-02-07 13:32:00,71.2,26.4,31.00,NNE,23,8.2,21.2,19,0.00,,,0.00,WUHU216HW,2013-02-07 20:32:00,
2013-02-07 13:37:00,70.8,24.5,31.00,NNE,23,9.8,21.2,18,0.00,,,0.00,WUHU216HW,2013-02-07 20:37:00,
2013-02-07 13:42:00,70.8,24.5,31.00,NNW,338,16.5,18.7,18,0.00,,,0.00,WUHU216HW,2013-02-07 20:42:00,
2013-02-07 13:47:00,71.4,25.0,31.00,North,0,10.7,17.0,18,0.00,,,0.00,WUHU216HW,2013-02-07 20:47:00,
2013-02-07 13:52:00,71.4,26.6,30.99,NNE,23,19.9,19.9,19,0.00,,,0.00,WUHU216HW,2013-02-07 20:52:00,
2013-02-07 13:57:00,71.4,26.6,30.99,NNE,23,14.3,19.9,19,0.00,,,0.00,WUHU216HW,2013-02-07 20:57:00,
2013-02-07 14:02:00,71.4,25.0,30.99,NNE,23,11.4,22.1,18,0.00,,,0.00,WUHU216HW,2013-02-07 21:02:00,
2013-02-07 14:08:00,71.4,25.0,30.99,NNE,23,17.4,22.1,18,0.00,,,0.00,WUHU216HW,2013-02-07 21:08:00,
2013-02-07 14:13:00,70.7,24.4,30.99,NE,45,14.3,18.1,18,0.00,,,0.00,WUHU216HW,2013-02-07 21:13:00,
2013-02-07 14:18:00,70.8,22.9,30.98,NNE,23,12.7,23.7,17,0.00,,,0.00,WUHU216HW,2013-02-07 21:18:00,
2013-02-07 14:23:00,70.5,21.0,30.98,NNE,23,17.4,23.7,16,0.00,,,0.00,WUHU216HW,2013-02-07 21:23:00,
2013-02-07 14:28:00,70.3,24.2,30.98,NNW,338,10.7,19.4,18,0.00,,,0.00,WUHU216HW,2013-02-07 21:28:00,
2013-02-07 14:33:00,71.2,23.2,30.98,North,0,13.8,19.0,17,0.00,,,0.00,WUHU216HW,2013-02-07 21:33:00,
2013-02-07 14:38:00,71.4,23.3,30.98,NNE,23,8.0,19.0,17,0.00,,,0.00,WUHU216HW,2013-02-07 21:38:00,
2013-02-07 14:43:00,71.6,26.7,30.98,NNE,23,20.1,20.1,19,0.00,,,0.00,WUHU216HW,2013-02-07 21:43:00,
2013-02-07 14:48:00,71.7,25.3,30.98,North,0,16.3,20.1,18,0.00,,,0.00,WUHU216HW,2013-02-07 21:48:00,
2013-02-07 14:53:00,71.0,26.3,30.98,NNE,23,12.5,25.5,19,0.00,,,0.00,WUHU216HW,2013-02-07 21:53:00,
2013-02-07 14:58:00,70.3,28.4,30.98,NE,45,9.1,25.5,21,0.00,,,0.00,WUHU216HW,2013-02-07 21:58:00,
2013-02-07 15:03:00,70.5,28.5,30.98,North,0,8.0,17.6,21,0.00,,,0.00,WUHU216HW,2013-02-07 22:03:00,
2013-02-07 15:08:00,70.3,28.4,30.97,NNE,23,10.7,25.2,21,0.00,,,0.00,WUHU216HW,2013-02-07 22:08:00,
2013-02-07 15:13:00,70.5,28.4,30.97,NNE,23,14.3,25.2,20,0.00,,,0.00,WUHU216HW,2013-02-07 22:13:00,
2013-02-07 15:18:00,70.1,28.1,30.97,NNW,338,14.7,23.9,21,0.00,,,0.00,WUHU216HW,2013-02-07 22:18:00,
2013-02-07 15:23:00,70.7,26.0,30.97,North,0,14.5,17.0,19,0.00,,,0.00,WUHU216HW,2013-02-07 22:23:00,
2013-02-07 15:28:00,70.1,25.6,30.97,NNE,23,10.2,15.4,19,0.00,,,0.00,WUHU216HW,2013-02-07 22:28:00,
2013-02-07 15:33:00,69.9,27.1,30.97,North,0,10.7,17.6,20,0.00,,,0.00,WUHU216HW,2013-02-07 22:33:00,
2013-02-07 15:39:00,70.5,25.9,30.97,NNE,23,9.1,17.6,19,0.00,,,0.00,WUHU216HW,2013-02-07 22:39:00,
2013-02-07 15:44:00,71.2,29.1,30.96,North,0,16.1,16.1,21,0.00,,,0.00,WUHU216HW,2013-02-07 22:44:00,
2013-02-07 15:49:00,70.8,26.2,30.97,North,0,8.5,18.7,19,0.00,,,0.00,WUHU216HW,2013-02-07 22:49:00,
2013-02-07 15:54:00,70.3,28.4,30.96,North,0,10.7,18.7,21,0.00,,,0.00,WUHU216HW,2013-02-07 22:54:00,
2013-02-07 15:59:00,70.3,28.4,30.97,NNE,23,14.3,18.1,21,0.00,,,0.00,WUHU216HW,2013-02-07 22:59:00,
2013-02-07 16:04:00,69.9,28.1,30.96,NNE,23,9.3,18.1,21,0.00,,,0.00,WUHU216HW,2013-02-07 23:04:00,
2013-02-07 16:09:00,69.4,28.6,30.96,NE,45,16.5,17.4,22,0.00,,,0.00,WUHU216HW,2013-02-07 23:09:00,
2013-02-07 16:14:00,69.4,28.6,30.96,NNE,23,13.6,16.5,22,0.00,,,0.00,WUHU216HW,2013-02-07 23:14:00,
2013-02-07 16:19:00,68.7,28.0,30.96,NE,45,12.7,15.4,22,0.00,,,0.00,WUHU216HW,2013-02-07 23:19:00,
2013-02-07 16:24:00,68.9,24.4,30.96,NNE,23,16.1,16.1,19,0.00,,,0.00,WUHU216HW,2013-02-07 23:24:00,
2013-02-07 16:29:00,68.3,27.7,30.95,NNE,23,19.9,19.9,22,0.00,,,0.00,WUHU216HW,2013-02-07 23:29:00,
2013-02-07 16:34:00,68.1,27.6,30.95,North,0,13.4,19.9,22,0.00,,,0.00,WUHU216HW,2013-02-07 23:34:00,
2013-02-07 16:39:00,68.1,27.6,30.95,NNE,23,13.6,18.5,22,0.00,,,0.00,WUHU216HW,2013-02-07 23:39:00,
2013-02-07 16:44:00,68.7,29.0,30.95,North,0,7.8,18.5,23,0.00,,,0.00,WUHU216HW,2013-02-07 23:44:00,
2013-02-07 16:49:00,68.3,27.6,30.95,NNE,23,12.5,17.8,22,0.00,,,0.00,WUHU216HW,2013-02-07 23:49:00,
2013-02-07 16:54:00,67.4,28.0,30.95,ENE,68,16.1,17.8,23,0.00,,,0.00,WUHU216HW,2013-02-07 23:54:00,
2013-02-07 16:59:00,66.9,28.5,30.95,NE,45,8.7,16.1,24,0.00,,,0.00,WUHU216HW,2013-02-07 23:59:00,
2013-02-07 17:04:00,66.9,28.5,30.95,NNE,23,7.6,14.5,24,0.00,,,0.00,WUHU216HW,2013-02-08 00:04:00,
2013-02-07 17:10:00,66.9,28.3,30.95,North,0,11.4,17.6,24,0.00,,,0.00,WUHU216HW,2013-02-08 00:10:00,
2013-02-07 17:15:00,66.9,28.3,30.94,NNE,23,11.4,17.6,24,0.00,,,0.00,WUHU216HW,2013-02-08 00:15:00,
2013-02-07 17:20:00,66.3,28.0,30.94,NNE,23,12.5,17.6,24,0.00,,,0.00,WUHU216HW,2013-02-08 00:20:00,
2013-02-07 17:25:00,65.6,28.3,30.94,NNE,23,10.2,16.7,25,0.00,,,0.00,WUHU216HW,2013-02-08 00:25:00,
2013-02-07 17:30:00,65.1,28.0,30.94,North,0,13.1,16.7,25,0.00,,,0.00,WUHU216HW,2013-02-08 00:30:00,
2013-02-07 17:35:00,64.5,27.5,30.94,North,0,14.7,14.7,25,0.00,,,0.00,WUHU216HW,2013-02-08 00:35:00,
2013-02-07 17:40:00,64.2,28.2,30.94,NNE,23,11.6,14.7,26,0.00,,,0.00,WUHU216HW,2013-02-08 00:40:00,
2013-02-07 17:45:00,63.6,27.7,30.94,NNE,23,10.5,14.5,26,0.00,,,0.00,WUHU216HW,2013-02-08 00:45:00,
2013-02-07 17:50:00,63.3,28.4,30.94,NNE,23,8.2,13.1,27,0.00,,,0.00,WUHU216HW,2013-02-08 00:50:00,
2013-02-07 17:55:00,62.6,27.8,30.93,North,0,8.9,12.0,27,0.00,,,0.00,WUHU216HW,2013-02-08 00:55:00,
2013-02-07 18:00:00,61.1,27.6,30.93,North,0,6.4,12.0,28,0.00,,,0.00,WUHU216HW,2013-02-08 01:00:00,
2013-02-07 18:05:00,59.9,27.2,30.93,North,0,6.9,9.6,29,0.00,,,0.00,WUHU216HW,2013-02-08 01:05:00,
2013-02-07 18:10:00,58.8,27.5,30.93,North,0,8.2,9.3,30,0.00,,,0.00,WUHU216HW,2013-02-08 01:10:00,
2013-02-07 18:15:00,58.1,26.8,30.93,North,0,5.3,9.3,30,0.00,,,0.00,WUHU216HW,2013-02-08 01:15:00,
2013-02-07 18:20:00,57.3,26.2,30.93,North,0,7.6,9.3,30,0.00,,,0.00,WUHU216HW,2013-02-08 01:20:00,
2013-02-07 18:26:00,56.8,25.7,30.93,North,0,3.8,7.6,30,0.00,,,0.00,WUHU216HW,2013-02-08 01:26:00,
2013-02-07 18:31:00,56.4,26.1,30.93,North,0,4.4,8.2,31,0.00,,,0.00,WUHU216HW,2013-02-08 01:31:00,
2013-02-07 18:36:00,56.1,25.7,30.93,North,0,6.4,8.2,31,0.00,,,0.00,WUHU216HW,2013-02-08 01:36:00,
2013-02-07 18:41:00,55.7,25.4,30.93,North,0,5.3,6.4,31,0.00,,,0.00,WUHU216HW,2013-02-08 01:41:00,
2013-02-07 18:46:00,55.2,25.6,30.93,North,0,6.9,8.0,32,0.00,,,0.00,WUHU216HW,2013-02-08 01:46:00,
2013-02-07 18:51:00,55.2,25.6,30.94,North,0,6.4,8.0,32,0.00,,,0.00,WUHU216HW,2013-02-08 01:51:00,
2013-02-07 18:56:00,55.2,26.3,30.94,North,0,8.0,8.0,33,0.00,,,0.00,WUHU216HW,2013-02-08 01:56:00,
2013-02-07 19:01:00,55.2,26.3,30.93,North,0,4.0,8.0,33,0.00,,,0.00,WUHU216HW,2013-02-08 02:01:00,
2013-02-07 19:06:00,55.0,26.2,30.93,North,0,2.4,6.0,33,0.00,,,0.00,WUHU216HW,2013-02-08 02:06:00,
2013-02-07 19:11:00,54.8,26.0,30.93,North,0,8.2,8.2,33,0.00,,,0.00,WUHU216HW,2013-02-08 02:11:00,
2013-02-07 19:16:00,54.6,25.9,30.93,North,0,6.4,8.2,33,0.00,,,0.00,WUHU216HW,2013-02-08 02:16:00,
2013-02-07 19:21:00,54.6,26.6,30.93,NNW,338,7.3,8.5,34,0.00,,,0.00,WUHU216HW,2013-02-08 02:21:00,
2013-02-07 19:26:00,54.6,26.6,30.93,NNW,338,9.6,9.6,34,0.00,,,0.00,WUHU216HW,2013-02-08 02:26:00,
2013-02-07 19:31:00,54.6,26.6,30.92,NNW,338,6.2,9.6,34,0.00,,,0.00,WUHU216HW,2013-02-08 02:31:00,
2013-02-07 19:36:00,55.0,26.9,30.92,NNW,338,5.3,13.1,34,0.00,,,0.00,WUHU216HW,2013-02-08 02:36:00,
2013-02-07 19:41:00,55.0,26.9,30.92,NNW,338,9.8,13.1,34,0.00,,,0.00,WUHU216HW,2013-02-08 02:41:00,
2013-02-07 19:46:00,55.2,27.0,30.92,NNW,338,10.7,10.7,34,0.00,,,0.00,WUHU216HW,2013-02-08 02:46:00,
2013-02-07 19:52:00,55.0,26.9,30.92,NNW,338,6.0,10.7,34,0.00,,,0.00,WUHU216HW,2013-02-08 02:52:00,
2013-02-07 19:57:00,54.8,26.7,30.91,NNW,338,5.3,10.0,34,0.00,,,0.00,WUHU216HW,2013-02-08 02:57:00,
2013-02-07 20:02:00,54.5,26.4,30.91,NNW,338,7.6,10.0,34,0.00,,,0.00,WUHU216HW,2013-02-08 03:02:00,
2013-02-07 20:07:00,54.5,27.1,30.91,NNW,338,9.6,11.4,35,0.00,,,0.00,WUHU216HW,2013-02-08 03:07:00,
2013-02-07 20:12:00,54.5,27.1,30.91,NNW,338,8.5,11.4,35,0.00,,,0.00,WUHU216HW,2013-02-08 03:12:00,
2013-02-07 20:17:00,54.5,27.0,30.91,NNW,338,11.6,11.6,35,0.00,,,0.00,WUHU216HW,2013-02-08 03:17:00,
2013-02-07 20:22:00,54.5,27.8,30.91,NNW,338,7.1,11.6,36,0.00,,,0.00,WUHU216HW,2013-02-08 03:22:00,
2013-02-07 20:27:00,54.5,27.8,30.91,NNW,338,6.9,9.6,36,0.00,,,0.00,WUHU216HW,2013-02-08 03:27:00,
2013-02-07 20:32:00,54.3,27.7,30.91,NNW,338,9.1,9.3,36,0.00,,,0.00,WUHU216HW,2013-02-08 03:32:00,
2013-02-07 20:37:00,54.3,27.7,30.91,NNW,338,7.1,9.6,36,0.00,,,0.00,WUHU216HW,2013-02-08 03:37:00,
2013-02-07 20:43:00,54.3,27.7,30.91,NNW,338,6.7,9.6,36,0.00,,,0.00,WUHU216HW,2013-02-08 03:43:00,
2013-02-07 20:48:00,54.1,27.5,30.91,NNW,338,7.1,7.3,36,0.00,,,0.00,WUHU216HW,2013-02-08 03:48:00,
2013-02-07 20:53:00,54.1,27.5,30.91,NNW,338,5.5,8.7,36,0.00,,,0.00,WUHU216HW,2013-02-08 03:53:00,
2013-02-07 20:58:00,54.1,26.8,30.91,NNW,338,8.2,10.0,35,0.00,,,0.00,WUHU216HW,2013-02-08 03:58:00,
2013-02-07 21:03:00,53.9,26.7,30.91,NNW,338,8.7,10.0,35,0.00,,,0.00,WUHU216HW,2013-02-08 04:03:00,
2013-02-07 21:08:00,53.9,26.7,30.90,NNW,338,8.5,9.1,35,0.00,,,0.00,WUHU216HW,2013-02-08 04:08:00,
2013-02-07 21:13:00,53.9,26.7,30.90,NNW,338,5.1,8.5,35,0.00,,,0.00,WUHU216HW,2013-02-08 04:13:00,
2013-02-07 21:18:00,53.9,26.0,30.90,NNW,338,8.5,8.5,34,0.00,,,0.00,WUHU216HW,2013-02-08 04:18:00,
2013-02-07 21:23:00,53.9,26.0,30.90,NNW,338,6.7,10.9,34,0.00,,,0.00,WUHU216HW,2013-02-08 04:23:00,
2013-02-07 21:28:00,54.1,26.1,30.89,NNW,338,9.1,10.9,34,0.00,,,0.00,WUHU216HW,2013-02-08 04:28:00,
2013-02-07 21:33:00,54.1,25.4,30.89,North,0,8.0,11.6,33,0.00,,,0.00,WUHU216HW,2013-02-08 04:33:00,
2013-02-07 21:38:00,54.1,25.4,30.89,NNW,338,6.0,11.6,33,0.00,,,0.00,WUHU216HW,2013-02-08 04:38:00,
2013-02-07 21:43:00,54.1,25.4,30.89,North,0,6.9,11.6,33,0.00,,,0.00,WUHU216HW,2013-02-08 04:43:00,
2013-02-07 21:48:00,53.9,25.3,30.89,North,0,8.5,8.5,33,0.00,,,0.00,WUHU216HW,2013-02-08 04:48:00,
2013-02-07 21:53:00,53.7,25.1,30.89,North,0,11.6,11.6,33,0.00,,,0.00,WUHU216HW,2013-02-08 04:53:00,
2013-02-07 21:58:00,53.7,25.1,30.89,North,0,10.9,11.6,33,0.00,,,0.00,WUHU216HW,2013-02-08 04:58:00,
2013-02-07 22:00:00,53.9,25.3,30.89,North,0,9.6,11.6,33,0.00,,,0.00,WUHU216HW,2013-02-08 05:00:00,
2013-02-07 22:02:00,53.9,26.0,30.89,North,0,9.6,11.6,34,0.00,,,0.00,WUHU216HW,2013-02-08 05:02:00,
2013-02-07 22:07:00,54.1,26.1,30.89,NNW,338,15.4,15.4,34,0.00,,,0.00,WUHU216HW,2013-02-08 05:07:00,
2013-02-07 22:12:00,54.3,26.3,30.89,North,0,8.5,15.4,34,0.00,,,0.00,WUHU216HW,2013-02-08 05:12:00,
2013-02-07 22:17:00,54.5,26.4,30.89,North,0,8.9,12.9,34,0.00,,,0.00,WUHU216HW,2013-02-08 05:17:00,
2013-02-07 22:22:00,54.3,27.1,30.88,North,0,8.2,12.9,35,0.00,,,0.00,WUHU216HW,2013-02-08 05:22:00,
2013-02-07 22:27:00,54.3,27.7,30.89,North,0,12.5,12.5,36,0.00,,,0.00,WUHU216HW,2013-02-08 05:27:00,
2013-02-07 22:32:00,54.3,28.4,30.89,North,0,6.4,12.5,37,0.00,,,0.00,WUHU216HW,2013-02-08 05:32:00,
2013-02-07 22:37:00,54.1,28.2,30.88,North,0,7.6,13.8,37,0.00,,,0.00,WUHU216HW,2013-02-08 05:37:00,
2013-02-07 22:42:00,54.1,28.9,30.88,North,0,6.2,13.8,38,0.00,,,0.00,WUHU216HW,2013-02-08 05:42:00,
2013-02-07 22:47:00,54.1,28.9,30.88,North,0,11.1,11.1,38,0.00,,,0.00,WUHU216HW,2013-02-08 05:47:00,
2013-02-07 22:52:00,54.3,29.1,30.88,North,0,10.0,11.1,38,0.00,,,0.00,WUHU216HW,2013-02-08 05:52:00,
2013-02-07 22:57:00,54.5,29.2,30.88,North,0,12.7,16.5,38,0.00,,,0.00,WUHU216HW,2013-02-08 05:57:00,
2013-02-07 23:02:00,55.0,29.7,30.87,North,0,12.0,16.5,38,0.00,,,0.00,WUHU216HW,2013-02-08 06:02:00,
2013-02-07 23:07:00,55.2,29.1,30.87,North,0,10.9,12.0,37,0.00,,,0.00,WUHU216HW,2013-02-08 06:07:00,
2013-02-07 23:12:00,55.4,29.3,30.87,North,0,18.7,18.7,37,0.00,,,0.00,WUHU216HW,2013-02-08 06:12:00,
2013-02-07 23:18:00,55.9,29.1,30.87,NNW,338,16.3,23.7,36,0.00,,,0.00,WUHU216HW,2013-02-08 06:18:00,
2013-02-07 23:23:00,56.3,29.4,30.86,North,0,11.1,23.7,36,0.00,,,0.00,WUHU216HW,2013-02-08 06:23:00,
2013-02-07 23:28:00,56.1,29.3,30.87,NNE,23,13.4,21.0,36,0.00,,,0.00,WUHU216HW,2013-02-08 06:28:00,
2013-02-07 23:33:00,55.9,29.1,30.86,NNW,338,15.8,18.3,36,0.00,,,0.00,WUHU216HW,2013-02-08 06:33:00,
2013-02-07 23:38:00,56.3,29.4,30.86,NNW,338,15.6,18.3,36,0.00,,,0.00,WUHU216HW,2013-02-08 06:38:00,
2013-02-07 23:43:00,56.1,29.3,30.86,North,0,16.5,18.3,36,0.00,,,0.00,WUHU216HW,2013-02-08 06:43:00,
2013-02-07 23:48:00,56.1,29.3,30.86,NNW,338,24.3,24.3,36,0.00,,,0.00,WUHU216HW,2013-02-08 06:48:00,
2013-02-07 23:53:00,56.3,28.7,30.86,North,0,20.8,24.3,35,0.00,,,0.00,WUHU216HW,2013-02-08 06:53:00,
2013-02-07 23:58:00,56.3,28.7,30.85,North,0,21.2,21.2,35,0.00,,,0.00,WUHU216HW,2013-02-08 06:58:00,